Location: Appleton
(44.2618°N, 88.4157°W)
Time: 19:49:27
(UTC+00:00)

Explorer 7 - Visible Passes

Search period start: 04 March 2021 00:00
Search period end: 14 March 2021 00:00
Orbit: 484 x 677 km, 50.3° (Epoch: 03 March)

Date Brightness Start Highest point End Pass type
(mag) Time Alt. Az. Time Alt. Az. Time Alt. Az.
04 Mar 6.9 00:30:09 10° WNW 00:34:18 61° NNE 00:37:35 14° ESE visible
04 Mar 8.4 02:11:02 10° WNW 02:13:54 28° WSW 02:13:54 28° WSW visible
05 Mar 6.7 00:34:41 10° WNW 00:38:52 85° NNE 00:42:18 13° ESE visible
05 Mar 8.9 02:16:01 10° W 02:18:37 19° SW 02:18:37 19° SW visible
06 Mar 7.0 00:39:14 10° WNW 00:43:23 66° SSW 00:47:06 11° SE visible
06 Mar 9.5 02:21:42 10° WSW 02:23:08 12° SW 02:23:25 12° SW visible
07 Mar 7.8 00:43:52 10° WNW 00:47:49 43° SW 00:51:32 10° SE visible
08 Mar 8.6 00:48:38 10° WNW 00:52:11 27° SW 00:55:33 10° SSE visible
09 Mar 9.4 00:53:41 10° W 00:56:28 18° SW 00:59:08 10° S visible
10 Mar 9.8 00:59:47 10° WSW 01:00:41 11° SW 01:01:34 10° SW visible
